To NAV CANADA Home Page Login to a new session Search on AWWS site Feedback and Comments Disclaimer Vers la page française équivalente Tips FAQ What's new on the site To the Forecasts and Observations / NOTAM section To "File a Flight Plan" website Publications and other links Update of the User's profile FIC Telephone Numbers My Weather Data Folder Route Weather Data Regional Weather Data Local Weather Data To the Forecasts and Observations / NOTAM section
Request Generated 05/25/2017 at 01:11:59 UTC . Weather information available at that time is displayed.

METAR/TAF

PAULATUK/PAULATUK (NORA ALIQATCHIALUK RUBEN)/NT    

LWIS CYPC 250100Z AUTO 33005KT 01/00 A2985=
LWIS CYPC 250000Z AUTO 33007KT 00/M00 A2985=
METAR CYPC 242300Z 35007KT 1SM BR OVC004 01/00 A2984 RMK ST8
1.0/0.3/1.2MM LAST STFD OBS/NEXT 251300 UTC SLP106=

*** REMARK        : Forecast period has ended; this was the last TAF issued
*** REMARQUE : La période de prévision est échue; ceci était le dernier TAF qui a été émis
TAF CYPC 241838Z 2419/2423 33010KT 1SM -SN BR OVC002 TEMPO 2419/2423
3SM -RASN BR OVC008
RMK NXT FCST WILL BE ISSUED AT 251445Z=
Your time UTC time
Weather data provided by Environment Canada and NAV CANADA